Location: *
(38.4303°S, 157.0822°W)
Time: 15:38:57
(UTC+00:00)

USA 59 Rocket - Pass Details

Date: 21 May 2024
Orbit: 383 x 1743 km, 63.3° (Epoch: 22 June)

Event Time Altitude Azimuth Distance (km) Brightness Sun altitude
Exits shadow 15:49:49 21° 232° (SW) 3,239 3.2 -19.2°
Maximum altitude 15:53:05 24° 208° (SSW) 3,080 3.2 -18.6°
Drops below altitude 10° 16:01:09 10° 157° (SSE) 3,988 4.3 -17.0°
Sets 16:05:10 0° 144° (SE) 4,857 4.9 -16.3°
